Regional Weather Roundup
Issued by NWS

Home | Current Version | Previous Version | Text Only | Print | Product List | Glossary Off
Versions: 1 2 3 4 5 6 7 8 9 10 11 12 13 14 15 16 17 18 19 20 21 22 23 24 25 26 27 28 29 30 31 32 33 34 35 36 37 38 39 40 41 42 43 44 45 46 47 48 49 50

000
ASUS45 KBOI 081310
RWRID

IDAHO REGIONAL WEATHER ROUNDUP
NATIONAL WEATHER SERVICE BOISE ID
600 AM MST MON FEB 08 2016

NOTE: "FAIR" INDICATES FEW OR NO CLOUDS BELOW 12000 FEET
WITH NO SIGNIFICANT WEATHER AND/OR OBSTRUCTIONS TO VISIBILITY

IDZ012-014-081400-
SOUTHWEST IDAHO


CITY           SKY/WX    TMP DP  RH WIND       PRES   REMARKS
BOISE          CLEAR     32  27  81 SE8       30.67R WCI  25
CALDWELL       CLEAR     27  26  96 E6        30.69S WCI  20
MOUNTAIN HOME  CLEAR     28  28 100 E10       30.68R WCI  18
$$

IDZ016-017-081400-
SOUTHCENTRAL IDAHO


CITY           SKY/WX    TMP DP  RH WIND       PRES   REMARKS
BURLEY         CLEAR     26  25  96 NE6       30.65S WCI  19
JEROME         FOG       25  24  96 NE13      30.66S VSB 3/4 WCI  14
TWIN FALLS     CLEAR     26  23  88 E6        30.65S WCI  19
$$

IDZ019>023-081400-
SOUTHEAST IDAHO


CITY           SKY/WX    TMP DP  RH WIND       PRES   REMARKS
IDAHO FALLS    FOG       22  21  96 MISG      30.68S VSB 1/2
POCATELLO      FOG       24  23  96 NE7       30.69S VSB 1   WCI  16
REXBURG        CLOUDY    22  21  96 CALM      30.68R FOG
$$

IDZ006-010-011-018-031-032-081400-
CENTRAL IDAHO MOUNTAINS


CITY           SKY/WX    TMP DP  RH WIND       PRES   REMARKS
MCCALL         CLEAR     14  10  84 CALM      30.62S
HAILEY         PTCLDY    21  18  86 NW5       30.64S WCI  15
STANLEY          N/A      6   1  80 E3        30.69S
SALMON         CLOUDY    21  18  86 CALM      30.71R
CHALLIS        CLEAR      9   6  88 NW3       30.68R
$$

IDZ002-004-006-007-026-081400-
NORTHERN IDAHO


CITY           SKY/WX    TMP DP  RH WIND       PRES   REMARKS
LEWISTON       CLEAR     36  30  79 CALM      30.62S
LOWELL           N/A     33  31  92 CALM      30.72S
COEUR D`ALENE  MOCLDY    34  28  80 NE12      30.60R WCI  25
MULLAN PASS    CLOUDY    32  25  75 SW5       30.56R WCI  27
$$



USA.gov is the U.S. government's official web portal to all federal, state and local government web resources and services.